1497153600.74,32814,17.0,74212.8,1.09,-5.81,-5.55,0,*70
1497153601.97,32815,17.0,74210.5,1.11,-5.81,-5.55,0,*78
1497153603.22,32816,17.0,74212.5,1.13,-5.81,-5.51,0,*7D
1497153604.45,32817,17.0,74212.3,1.11,-5.77,-5.51,0,*77
1497153605.67,32818,17.0,74214.0,1.11,-5.77,-5.51,0,*78
1497153606.89,32819,17.06,74214.8,1.11,-5.77,-5.39,0,*77
1497153608.11,32820,17.0,74214.8,1.11,-5.65,-5.39,0,*7E
1497153609.36,32821,17.0,74210.3,1.13,-5.65,-5.39,0,*7D
1497153610.62,32822,17.0,74214.0,1.13,-5.55,-5.23,0,*76
1497153611.87,32823,17.0,74214.0,1.13,-5.69,-5.43,0,*7E
1497153613.09,32824,17.0,74212.5,1.15,-5.65,-5.39,0,*7E
1497153614.34,32825,17.0,74210.5,1.13,-5.69,-5.43,0,*78
1497153615.62,32826,17.0,74208.5,1.13,-5.69,-5.31,0,*7E
1497153616.86,32827,17.0,74210.3,1.13,-5.69,-5.43,0,*7A
1497153618.11,32828,17.0,74212.3,1.13,-5.65,-5.39,0,*74
1497153619.34,32829,17.0,74210.0,1.15,-5.51,-5.11,0,*7E
1497153620.57,32830,17.06,74214.0,1.15,-5.51,-5.27,0,*73
1497153621.83,32831,17.0,74212.5,1.15,-5.61,-5.27,0,*71
1497153623.05,32832,17.0,74212.5,1.15,-5.39,-5.07,0,*7D
1497153624.25,32833,17.0,74210.3,1.15,-5.39,-4.99,0,*7A
1497153625.48,32834,17.0,74210.5,1.15,-5.39,-5.07,0,*7B
1497153626.73,32835,17.0,74212.3,1.17,-5.39,-5.07,0,*78
1497153627.98,32836,17.0,74214.0,1.17,-5.47,-5.07,0,*72
1497153629.23,32837,17.0,74214.5,1.21,-5.47,-5.15,0,*75
1497153630.5,32838,17.0,74212.0,1.17,-5.61,-5.27,0,*7A
1497153631.77,32839,17.0,74214.3,1.17,-5.61,-5.27,0,*7B
1497153633.02,32840,17.06,74212.5,1.17,-5.51,-5.11,0,*73
1497153634.27,32841,17.0,74212.3,1.17,-5.51,-5.19,0,*7A
1497153635.52,32842,17.0,74212.0,1.21,-5.47,-5.07,0,*74
1497153636.76,32843,17.0,74212.0,1.21,-5.43,-5.07,0,*71
1497153638.01,32844,17.0,74212.8,1.21,-5.35,-5.03,0,*73
1497153639.25,32845,17.0,74212.3,1.21,-5.43,-5.03,0,*73
1497153640.5,32846,17.0,74208.5,1.21,-5.47,-5.07,0,*70
1497153641.74,32847,17.0,74210.8,1.21,-5.35,-5.07,0,*74
1497153643.02,32848,17.06,74214.0,1.21,-5.31,-5.03,0,*7B
1497153644.29,32849,17.0,74212.8,1.21,-5.31,-4.93,0,*72
1497153645.54,32850,17.0,74214.5,1.23,-5.31,-4.85,0,*7F
1497153646.79,32851,17.0,74214.5,1.23,-5.15,-4.85,0,*78
1497153648.03,32852,17.0,74212.3,1.23,-5.15,-4.77,0,*76
1497153649.28,32853,17.06,74214.8,1.23,-5.19,-4.85,0,*76
1497153650.55,32854,17.06,74214.0,1.25,-5.19,-4.85,0,*77
1497153651.81,32855,17.06,74214.5,1.25,-5.19,-4.85,0,*76
1497153653.08,32856,17.0,74210.8,1.25,-5.15,-4.77,0,*74
1497153654.35,32857,17.06,74218.8,1.25,-5.15,-4.73,0,*71
1497153655.58,32858,17.0,74212.5,1.29,-4.99,-4.69,0,*7C
1497153656.85,32859,17.0,74212.3,1.29,-5.07,-4.69,0,*7B
1497153658.09,32860,17.0,74212.0,1.29,-4.99,-4.69,0,*77
1497153659.33,32861,17.06,74212.3,1.29,-4.99,-4.69,0,*76
1497153660.6,32862,17.06,74212.3,1.29,-5.07,-4.69,0,*73
1497153661.81,32863,17.0,74212.3,1.31,-4.77,-4.53,0,*74
1497153663.05,32864,17.06,74214.8,1.33,-4.89,-4.57,0,*74
1497153664.27,32865,17.06,74212.3,1.31,-4.89,-4.57,0,*77
1497153665.5,32866,17.06,74216.8,1.33,-4.77,-4.41,0,*70
1497153666.73,32867,17.0,74212.8,1.33,-4.77,-4.41,0,*71
1497153667.96,32868,17.06,74212.5,1.33,-4.81,-4.45,0,*73
1497153669.2,32869,17.0,74210.8,1.33,-4.81,-4.53,0,*75
1497153670.43,32870,17.06,74214.5,1.33,-4.81,-4.53,0,*7D
1497153671.67,32871,17.06,74214.8,1.33,-4.81,-4.57,0,*78
1497153672.88,32872,17.0,74212.0,1.35,-4.77,-4.37,0,*72
1497153674.09,32873,17.06,74212.8,1.35,-4.77,-4.37,0,*73
1497153675.32,32874,17.06,74212.3,1.37,-4.69,-4.37,0,*79
1497153676.55,32875,17.0,74214.3,1.37,-4.69,-4.33,0,*7C
1497153677.76,32876,17.06,74214.0,1.39,-4.69,-4.33,0,*71
1497153678.98,32877,17.06,74214.3,1.37,-4.61,-4.21,0,*75
1497153680.18,32878,17.0,74210.0,1.39,-4.53,-4.21,0,*75
1497153681.39,32879,17.06,74214.5,1.43,-4.57,-4.17,0,*78
1497153682.61,32880,17.06,74214.0,1.43,-4.53,-4.21,0,*7F
1497153683.83,32881,17.0,74210.8,1.43,-4.57,-4.17,0,*7F
1497153685.04,32882,17.06,74214.0,1.43,-4.53,-4.17,0,*78
1497153686.22,32883,17.06,74212.8,1.45,-4.53,-4.17,0,*7F
1497153687.42,32884,17.0,74212.8,1.45,-4.53,-4.13,0,*7C
1497153688.6,32885,17.06,74214.3,1.45,-4.45,-4.13,0,*7A
1497153689.79,32886,17.06,74212.0,1.45,-4.45,-4.13,0,*79
1497153691.01,32887,17.06,74212.5,1.47,-4.41,-4.09,0,*75
1497153692.25,32888,17.06,74212.0,1.47,-4.41,-4.01,0,*72
1497153693.47,32889,17.06,74212.3,1.47,-4.29,-3.95,0,*77
1497153694.68,32890,17.06,74214.3,1.49,-4.37,-4.01,0,*74
1497153695.89,32891,17.06,74214.0,1.49,-4.37,-4.01,0,*75
1497153697.11,32892,17.06,74212.0,1.51,-4.33,-4.05,0,*7F
1497153698.33,32893,17.06,74214.0,1.51,-4.33,-3.95,0,*70
1497153699.52,32894,17.06,74212.0,1.53,-4.29,-3.91,0,*7A
1497153700.72,32895,17.0,74210.8,1.53,-4.29,-3.91,0,*7B
1497153701.96,32896,17.06,74212.8,1.55,-4.29,-4.01,0,*70
1497153703.2,32897,17.06,74218.3,1.55,-4.33,-4.01,0,*7A
1497153704.45,32898,17.06,74214.3,1.55,-4.33,-4.01,0,*75
1497153705.67,32899,17.06,74212.3,1.55,-4.33,-3.91,0,*7A
1497153706.86,32900,17.06,74214.8,1.57,-4.25,-3.87,0,*79
1497153708.05,32901,17.06,74214.0,1.57,-4.17,-3.75,0,*74
1497153709.28,32902,17.06,74214.0,1.59,-4.05,-3.71,0,*7E
1497153710.52,32903,17.06,74216.0,1.59,-4.05,-3.63,0,*7C
1497153711.73,32904,17.0,74212.8,1.61,-4.09,-3.67,0,*78
1497153712.93,32905,17.06,74214.8,1.61,-4.09,-3.71,0,*7E
1497153714.17,32906,17.06,74214.0,1.61,-4.01,-3.71,0,*75
1497153715.38,32907,17.06,74214.3,1.65,-4.05,-3.67,0,*73
1497153716.58,32908,17.06,74212.0,1.65,-4.05,-3.67,0,*7C
1497153717.78,32909,17.06,74212.8,1.65,-4.09,-3.55,0,*70
1497153718.99,32910,17.0,74212.8,1.65,-3.95,-3.63,0,*7F
1497153720.22,32911,17.06,74214.0,1.69,-4.01,-3.71,0,*7B
1497153721.46,32912,17.06,74214.0,1.69,-4.01,-3.71,0,*78
1497153722.69,32913,17.06,74214.5,1.71,-4.05,-3.63,0,*77
1497153723.93,32914,17.06,74212.8,1.71,-4.05,-3.59,0,*79
1497153725.16,32915,17.06,74216.8,1.71,-4.05,-3.71,0,*72
1497153726.39,32916,17.06,74214.0,1.71,-4.05,-3.71,0,*71
1497153727.63,32917,17.06,74214.8,1.73,-4.09,-3.59,0,*74
1497153728.86,32918,17.06,74212.5,1.73,-4.09,-3.67,0,*76
1497153730.09,32919,17.06,74214.0,1.71,-4.05,-3.71,0,*7E
1497153731.35,32920,17.0,74214.5,1.73,-4.01,-3.71,0,*72
1497153732.56,32921,17.06,74214.5,1.75,-4.09,-3.71,0,*7D
1497153733.75,32922,17.06,74216.0,1.75,-4.09,-3.79,0,*76
1497153734.95,32923,17.06,74216.0,1.75,-4.09,-3.79,0,*77
1497153736.18,32924,17.06,74216.3,1.77,-4.09,-3.67,0,*7D
1497153737.42,32925,17.06,74212.8,1.77,-4.09,-3.67,0,*7C
1497153738.65,32926,17.06,74212.3,1.77,-4.09,-3.67,0,*7F
1497153739.87,32927,17.06,74212.5,1.77,-4.09,-3.75,0,*7D
1497153741.07,32928,17.06,74212.5,1.79,-4.05,-3.75,0,*70
1497153742.34,32929,17.06,74212.0,1.81,-4.01,-3.59,0,*7C
1497153743.6,32930,17.06,74212.5,1.81,-4.01,-3.59,0,*74
1497153744.86,32931,17.06,74214.0,1.81,-4.01,-3.71,0,*7F
1497153746.08,32932,17.0,74210.8,1.81,-4.05,-3.75,0,*7C
1497153747.31,32933,17.06,74212.5,1.81,-4.05,-3.71,0,*79
1497153748.54,32934,17.06,74214.8,1.81,-4.05,-3.71,0,*7E
1497153749.78,32935,17.06,74214.5,1.83,-4.01,-3.67,0,*7E
1497153750.98,32936,17.06,74216.3,1.83,-4.09,-3.71,0,*72
1497153752.19,32937,17.06,74214.5,1.85,-4.09,-3.75,0,*71
1497153753.38,32938,17.06,74214.0,1.83,-4.09,-3.83,0,*71
1497153754.62,32939,17.0,74210.0,1.83,-4.01,-3.71,0,*75
1497153755.83,32940,17.06,74212.0,1.85,-4.09,-3.75,0,*71
1497153757.02,32941,17.06,74214.5,1.83,-4.13,-3.75,0,*7D
1497153758.23,32942,17.06,74214.5,1.85,-4.13,-3.83,0,*71
1497153759.45,32943,17.06,74216.3,1.85,-4.21,-3.87,0,*75
1497153760.66,32944,17.06,74216.8,1.85,-4.25,-3.87,0,*76
1497153761.87,32945,17.06,74216.8,1.89,-4.29,-3.95,0,*74
1497153763.12,32946,17.06,74214.5,1.85,-4.33,-4.01,0,*7A
1497153764.3,32947,17.0,74212.8,1.91,-4.41,-4.05,0,*7F
1497153765.52,32948,17.06,74214.0,1.89,-4.33,-4.05,0,*7C
1497153766.74,32949,17.06,74218.0,1.89,-4.33,-3.91,0,*77
1497153767.95,32950,17.06,74212.8,1.89,-4.33,-4.05,0,*75
1497153769.16,32951,17.06,74212.8,1.89,-4.41,-4.05,0,*71
1497153770.38,32952,17.06,74216.0,1.89,-4.33,-4.05,0,*77
1497153771.59,32953,17.06,74214.0,1.89,-4.33,-4.05,0,*76
1497153772.8,32954,17.06,74214.3,1.89,-4.41,-4.05,0,*74
1497153773.99,32955,17.06,74214.5,1.91,-4.41,-4.05,0,*7C
1497153775.18,32956,17.06,74214.5,1.91,-4.41,-4.05,0,*7F
1497153776.36,32957,17.06,74212.3,1.91,-4.45,-4.09,0,*76
1497153777.55,32958,17.06,74212.8,1.91,-4.41,-4.05,0,*71
1497153778.74,32959,17.06,74216.3,1.91,-4.49,-4.17,0,*7B
1497153779.93,32960,17.06,74216.0,1.91,-4.49,-4.21,0,*74
1497153781.12,32961,17.06,74214.0,1.91,-4.49,-4.21,0,*75
1497153782.32,32962,17.06,74212.3,1.91,-4.61,-4.21,0,*7C
1497153783.51,32963,17.0,74212.8,1.91,-4.61,-4.33,0,*7E
1497153784.72,32964,17.06,74212.8,1.91,-4.69,-4.33,0,*71
1497153785.93,32965,17.06,74216.0,1.91,-4.69,-4.29,0,*7B
1497153787.14,32966,17.06,74214.3,1.91,-4.69,-4.33,0,*73
1497153788.35,32967,17.06,74218.3,1.91,-4.73,-4.41,0,*7C
1497153789.56,32968,17.06,74214.5,1.91,-4.69,-4.41,0,*78
1497153790.79,32969,17.06,74218.3,1.89,-4.73,-4.41,0,*7B
1497153792.0,32970,17.06,74214.5,1.91,-4.69,-4.41,0,*71
1497153793.21,32971,17.06,74214.8,1.91,-4.73,-4.49,0,*73
1497153794.45,32972,17.06,74214.5,1.93,-4.77,-4.53,0,*7D
1497153795.66,32973,17.06,74214.5,1.91,-4.81,-4.57,0,*73
1497153796.88,32974,17.06,74218.8,1.91,-4.81,-4.41,0,*73
1497153798.09,32975,17.06,74212.8,1.91,-4.73,-4.49,0,*77
1497153799.3,32976,17.06,74216.5,1.91,-4.73,-4.49,0,*74
1497153800.51,32977,17.06,74212.8,1.91,-4.73,-4.41,0,*7D
1497153801.75,32978,17.06,74218.5,1.89,-4.85,-4.61,0,*70
1497153802.96,32979,17.06,74216.5,1.91,-4.81,-4.61,0,*7C
1497153804.17,32980,17.06,74214.5,1.91,-4.85,-4.61,0,*7E
1497153805.41,32981,17.06,74212.5,1.89,-4.85,-4.57,0,*73
1497153806.64,32982,17.06,74216.5,1.89,-4.85,-4.57,0,*70
1497153807.88,32983,17.06,74214.0,1.89,-4.85,-4.57,0,*71
1497153809.09,32984,17.06,74214.5,1.91,-4.85,-4.57,0,*7F
1497153810.3,32985,17.06,74216.0,1.91,-4.81,-4.57,0,*7A
1497153811.52,32986,17.06,74216.0,1.91,-4.85,-4.61,0,*78
1497153812.75,32987,17.06,74212.8,1.89,-4.93,-4.61,0,*77
1497153813.98,32988,17.06,74214.3,1.89,-4.85,-4.57,0,*7A
1497153815.24,32989,17.06,74214.0,1.89,-5.11,-4.85,0,*78
1497153816.51,32990,17.06,74212.3,1.89,-5.19,-4.93,0,*7F
1497153817.78,32991,17.06,74214.3,1.89,-5.23,-4.85,0,*70
1497153819.04,32992,17.06,74212.0,1.89,-5.23,-4.93,0,*74
1497153820.28,32993,17.06,74218.3,1.85,-5.27,-4.99,0,*77
1497153821.54,32994,17.06,74216.0,1.85,-5.15,-4.89,0,*70
1497153822.81,32995,17.06,74214.5,1.85,-5.15,-4.89,0,*71
1497153824.08,32996,17.06,74214.3,1.85,-5.11,-4.89,0,*76
1497153825.32,32997,17.06,74216.5,1.83,-5.15,-4.89,0,*75
1497153826.59,32998,17.06,74212.8,1.85,-5.15,-4.89,0,*7C
1497153827.83,32999,17.06,74214.8,1.83,-5.15,-4.89,0,*7B
1497153829.1,33000,17.06,74214.3,1.85,-5.23,-4.89,0,*70
1497153830.34,33001,17.06,74214.8,1.85,-5.23,-4.99,0,*70
1497153831.55,33002,17.06,74212.0,1.83,-5.27,-4.99,0,*71
1497153832.77,33003,17.06,74218.8,1.83,-5.35,-5.03,0,*71
1497153833.96,33004,17.06,74214.3,1.83,-5.35,-4.99,0,*74
1497153835.18,33005,17.06,74212.0,1.83,-5.39,-5.03,0,*7B
1497153836.4,33006,17.06,74218.5,1.83,-5.35,-5.03,0,*74
1497153837.67,33007,17.06,74212.5,1.81,-5.31,-5.07,0,*77
1497153838.92,33008,17.06,74216.0,1.81,-5.39,-5.07,0,*70
1497153840.16,33009,17.06,74214.3,1.81,-5.43,-5.27,0,*7E
1497153841.37,33010,17.06,74218.8,1.79,-5.43,-5.15,0,*70
1497153842.61,33011,17.06,74214.3,1.81,-5.39,-5.15,0,*7B
1497153843.89,33012,17.06,74212.8,1.81,-5.31,-5.03,0,*77
1497153845.16,33013,17.06,74216.0,1.81,-5.31,-5.07,0,*72
1497153846.38,33014,17.06,74216.8,1.79,-5.47,-5.11,0,*74
1497153847.62,33015,17.06,74214.0,1.81,-5.43,-5.07,0,*71
1497153848.86,33016,17.06,74218.3,1.81,-5.43,-5.15,0,*71
1497153850.11,33017,17.06,74212.8,1.77,-5.51,-5.23,0,*7F
1497153851.34,33018,17.06,74216.0,1.79,-5.47,-5.19,0,*70
1497153852.56,33019,17.06,74214.3,1.79,-5.51,-5.31,0,*7C
1497153853.79,33020,17.06,74218.8,1.79,-5.47,-5.23,0,*72
1497153855.01,33021,17.06,74216.0,1.79,-5.43,-5.23,0,*77
1497153856.23,33022,17.06,74214.3,1.79,-5.43,-5.23,0,*74
1497153857.48,33023,17.06,74212.0,1.77,-5.43,-5.19,0,*72
1497153858.73,33024,17.06,74212.5,1.79,-5.31,-5.07,0,*71
1497153859.98,33025,17.06,74216.5,1.77,-5.47,-5.11,0,*78
1497153861.22,33026,17.06,74214.5,1.77,-5.43,-5.19,0,*77
1497153862.47,33027,17.06,74216.5,1.77,-5.47,-5.19,0,*72
1497153863.7,33028,17.06,74216.5,1.75,-5.51,-5.27,0,*75
1497153864.95,33029,17.06,74218.3,1.77,-5.47,-5.31,0,*76
1497153866.17,33030,17.06,74212.8,1.75,-5.47,-5.27,0,*7B
1497153867.42,33031,17.06,74214.8,1.77,-5.35,-5.07,0,*7F
1497153868.67,33032,17.06,74218.0,1.77,-5.43,-5.19,0,*72
1497153869.89,33033,17.06,74216.5,1.75,-5.47,-5.23,0,*7C
1497153871.12,33034,17.06,74212.8,1.75,-5.51,-5.11,0,*7D
1497153872.34,33035,17.06,74216.8,1.75,-5.39,-5.11,0,*72
1497153873.56,33036,17.06,74214.8,1.75,-5.39,-5.11,0,*71
1497153874.78,33037,17.06,74214.8,1.75,-5.47,-5.15,0,*7D
1497153876.01,33038,17.06,74216.0,1.75,-5.51,-5.27,0,*74
1497153877.24,33039,17.06,74212.8,1.75,-5.51,-5.23,0,*71
1497153878.46,33040,17.06,74216.3,1.75,-5.47,-5.23,0,*78
1497153879.68,33041,17.06,74214.3,1.75,-5.47,-5.15,0,*7C
1497153880.9,33042,17.06,74214.3,1.75,-5.35,-5.11,0,*7E
1497153882.13,33043,17.06,74214.0,1.75,-5.39,-5.15,0,*77
1497153883.35,33044,17.06,74218.0,1.75,-5.39,-5.15,0,*70
1497153884.59,33045,17.06,74216.5,1.73,-5.51,-5.15,0,*79
1497153885.84,33046,17.06,74218.8,1.73,-5.55,-5.23,0,*7B
1497153887.09,33047,17.06,74216.0,1.73,-5.47,-5.23,0,*79
1497153888.34,33048,17.06,74212.8,1.73,-5.51,-5.23,0,*71
1497153889.58,33049,17.06,74216.8,1.73,-5.47,-5.23,0,*77
1497153890.83,33050,17.06,74214.5,1.73,-5.47,-5.15,0,*7A
1497153892.08,33051,17.06,74212.5,1.71,-5.51,-5.27,0,*7F
1497153893.32,33052,17.06,74218.8,1.73,-5.47,-5.15,0,*78
1497153894.57,33053,17.06,74216.3,1.73,-5.47,-5.23,0,*7C
1497153895.81,33054,17.06,74216.8,1.73,-5.39,-5.11,0,*73
1497153897.05,33055,17.06,74218.8,1.73,-5.35,-5.11,0,*7E
1497153898.3,33056,17.06,74216.0,1.71,-5.55,-5.19,0,*71
1497153899.54,33057,17.06,74216.5,1.73,-5.47,-5.23,0,*78
1497153900.79,33058,17.06,74216.8,1.71,-5.51,-5.27,0,*76
1497153902.04,33059,17.06,74214.8,1.73,-5.51,-5.23,0,*71
1497153903.29,33060,17.06,74218.3,1.71,-5.51,-5.27,0,*7D
1497153904.53,33061,17.06,74218.3,1.71,-5.39,-5.15,0,*73
1497153905.78,33062,17.06,74216.5,1.71,-5.39,-5.03,0,*77
1497153907.02,33063,17.06,74218.3,1.73,-5.39,-5.03,0,*74
1497153908.29,33064,17.06,74218.3,1.71,-5.31,-5.15,0,*7E
1497153909.56,33065,17.06,74216.3,1.71,-5.31,-5.15,0,*7F
1497153910.81,33066,17.06,74218.0,1.71,-5.39,-5.19,0,*78
1497153912.05,33067,17.06,74218.0,1.73,-5.39,-5.11,0,*73
1497153913.3,33068,17.06,74216.0,1.71,-5.51,-5.27,0,*75
1497153914.54,33069,17.06,74218.8,1.71,-5.51,-5.27,0,*74
1497153915.79,33070,17.06,74214.5,1.71,-5.51,-5.27,0,*7C
1497153917.04,33071,17.06,74216.0,1.73,-5.47,-5.15,0,*79
1497153918.28,33072,17.06,74214.5,1.73,-5.39,-5.19,0,*7F
1497153919.53,33073,17.06,74214.5,1.71,-5.55,-5.19,0,*76
1497153920.77,33074,17.06,74222.3,1.71,-5.39,-5.15,0,*77
1497153922.02,33075,17.06,74216.0,1.71,-5.39,-5.07,0,*75
1497153923.29,33076,17.06,74216.5,1.71,-5.31,-5.07,0,*7E
1497153924.54,33077,17.06,74216.5,1.69,-5.31,-5.07,0,*76
1497153925.81,33078,17.06,74218.3,1.73,-5.23,-5.07,0,*71
1497153927.09,33079,17.06,74218.3,1.71,-5.31,-5.03,0,*75
1497153928.36,33080,17.06,74216.0,1.71,-5.27,-5.07,0,*70
1497153929.6,33081,17.06,74216.0,1.71,-5.39,-5.07,0,*7E
1497153930.85,33082,17.06,74216.5,1.71,-5.43,-5.07,0,*70
1497153932.12,33083,17.06,74216.8,1.71,-5.31,-5.03,0,*70
1497153933.37,33084,17.06,74218.3,1.71,-5.39,-5.07,0,*7B
1497153934.61,33085,17.06,74216.8,1.71,-5.39,-5.07,0,*7A
1497153935.88,33086,17.06,74220.0,1.71,-5.19,-4.89,0,*7C
1497153937.15,33087,17.06,74220.3,1.73,-5.23,-4.93,0,*7D
1497153938.42,33088,17.06,74216.5,1.71,-5.31,-5.07,0,*7F
1497153939.69,33089,17.06,74218.8,1.71,-5.31,-5.07,0,*7E
1497153940.97,33090,17.06,74218.3,1.71,-5.27,-5.03,0,*75
1497153942.23,33091,17.06,74216.3,1.71,-5.27,-4.93,0,*7C
1497153943.5,33092,17.06,74216.0,1.71,-5.07,-4.89,0,*76
1497153944.77,33093,17.06,74218.3,1.71,-5.19,-5.03,0,*7B
1497153946.04,33094,17.06,74216.3,1.71,-5.27,-5.03,0,*71
1497153947.31,33095,17.06,74218.0,1.71,-5.27,-5.03,0,*70
1497153948.56,33096,17.06,74216.5,1.71,-5.39,-5.03,0,*7C
1497153949.83,33097,17.06,74216.5,1.71,-5.31,-5.03,0,*75
1497153951.1,33098,17.06,74218.8,1.71,-5.19,-4.93,0,*78
1497153952.37,33099,17.06,74218.3,1.71,-5.19,-5.03,0,*71
1497153953.64,33100,17.06,74216.0,1.71,-5.31,-5.03,0,*7A
1497153954.9,33101,17.06,74220.0,1.71,-5.19,-4.93,0,*79
1497153956.15,33102,17.06,74220.3,1.73,-5.35,-5.03,0,*7E
1497153957.42,33103,17.06,74218.0,1.71,-5.31,-5.03,0,*79
1497153958.7,33104,17.06,74216.8,1.71,-5.31,-5.03,0,*7E
1497153959.97,33105,17.06,74218.5,1.71,-5.31,-5.03,0,*7F
1497153961.24,33106,17.06,74222.0,1.71,-5.31,-5.07,0,*78
1497153962.48,33107,17.06,74218.8,1.73,-5.39,-5.11,0,*74
1497153963.72,33108,17.06,74216.8,1.71,-5.43,-5.19,0,*7C
1497153964.97,33109,17.06,74218.8,1.71,-5.39,-5.15,0,*7C
1497153966.2,33110,17.06,74220.5,1.71,-5.43,-5.15,0,*79
1497153967.48,33111,17.06,74216.0,1.71,-5.27,-5.07,0,*79
1497153968.75,33112,17.06,74216.5,1.71,-5.27,-5.03,0,*7E
1497153970.02,33113,17.06,74220.3,1.71,-5.15,-4.89,0,*7D
1497153971.29,33114,17.06,74220.3,1.71,-5.19,-4.89,0,*76
1497153972.55,33115,17.06,74220.0,1.71,-5.27,-4.93,0,*71
1497153973.82,33116,17.06,74218.8,1.71,-5.27,-5.03,0,*7A
1497153975.07,33117,17.06,74216.0,1.71,-5.39,-5.07,0,*70
1497153976.31,33118,17.06,74216.8,1.71,-5.39,-5.07,0,*7F
1497153977.58,33119,17.06,74218.5,1.71,-5.27,-5.03,0,*75
1497153978.86,33120,17.06,74216.8,1.71,-5.31,-5.07,0,*7C
1497153980.13,33121,17.06,74218.0,1.73,-5.23,-5.03,0,*78
1497153981.4,33122,17.06,74216.0,1.73,-5.27,-5.03,0,*7F
1497153982.67,33123,17.06,74218.8,1.71,-5.31,-5.07,0,*7F
1497153983.94,33124,17.06,74218.8,1.73,-5.15,-4.89,0,*7B
1497153985.21,33125,17.06,74216.5,1.71,-5.27,-5.07,0,*7E
1497153986.49,33126,17.06,74216.3,1.71,-5.31,-5.03,0,*7E
1497153987.76,33127,17.06,74218.5,1.71,-5.31,-5.07,0,*7B
1497153989.03,33128,17.06,74222.8,1.73,-5.27,-5.11,0,*76
1497153990.3,33129,17.06,74220.5,1.71,-5.31,-5.03,0,*71
1497153991.57,33130,17.06,74216.3,1.71,-5.27,-5.07,0,*7A
1497153992.82,33131,17.06,74222.0,1.71,-5.39,-5.03,0,*70
1497153994.09,33132,17.06,74218.8,1.73,-5.23,-5.03,0,*7A
1497153995.36,33133,17.06,74218.3,1.71,-5.27,-5.07,0,*79
1497153996.63,33134,17.06,74222.8,1.71,-5.19,-4.89,0,*74
1497153997.9,33135,17.06,74218.0,1.71,-5.27,-5.07,0,*7F
1497153999.17,33136,17.06,74218.3,1.71,-5.27,-5.07,0,*7C
1497154000.45,33137,17.06,74218.0,1.71,-5.31,-5.03,0,*7E
1497154001.71,33138,17.06,74216.8,1.71,-5.19,-4.93,0,*73
1497154002.98,33139,17.06,74220.3,1.73,-5.15,-5.03,0,*74
1497154004.23,33140,17.06,74216.5,1.71,-5.39,-5.07,0,*72
1497154005.5,33141,17.06,74222.0,1.71,-5.27,-5.03,0,*78
1497154006.77,33142,17.06,74216.5,1.73,-5.27,-5.03,0,*79
1497154008.04,33143,17.06,74218.5,1.71,-5.31,-5.07,0,*79
1497154009.32,33144,17.06,74216.8,1.71,-5.31,-5.03,0,*7A
1497154010.59,33145,17.06,74222.0,1.71,-5.15,-4.89,0,*7E
1497154011.85,33146,17.06,74218.3,1.71,-5.27,-4.93,0,*77
1497154013.12,33147,17.06,74218.0,1.71,-5.27,-5.03,0,*7E
1497154014.39,33148,17.06,74222.0,1.71,-5.27,-5.07,0,*75
1497154015.66,33149,17.06,74218.8,1.73,-5.23,-5.07,0,*72
1497154016.93,33150,17.06,74218.8,1.73,-5.27,-5.03,0,*7A
1497154018.21,33151,17.06,74218.5,1.71,-5.27,-5.07,0,*7D
1497154019.47,33152,17.06,74222.5,1.73,-5.23,-4.89,0,*7F
1497154020.74,33153,17.06,74216.5,1.71,-5.31,-4.93,0,*74
1497154022.01,33154,17.06,74220.5,1.71,-5.19,-5.03,0,*71
1497154023.29,33155,17.06,74216.8,1.71,-5.19,-5.03,0,*70
1497154024.55,33156,17.06,74222.0,1.71,-5.15,-4.93,0,*77
1497154025.82,33157,17.06,74216.3,1.73,-5.15,-4.89,0,*7F
1497154027.09,33158,17.06,74220.3,1.71,-5.31,-4.93,0,*7F
1497154028.36,33159,17.06,74216.5,1.71,-5.19,-5.03,0,*7C
1497154029.63,33160,17.06,74220.3,1.71,-5.31,-5.07,0,*78
1497154030.87,33161,17.06,74218.8,1.73,-5.35,-5.03,0,*7B
1497154032.11,33162,17.06,74220.3,1.71,-5.43,-5.15,0,*7C
1497154033.36,33163,17.06,74218.5,1.71,-5.39,-5.15,0,*70
1497154034.6,33164,17.06,74218.0,1.71,-5.39,-5.15,0,*77
1497154035.84,33165,17.06,74222.8,1.71,-5.43,-5.15,0,*7B
1497154037.08,33166,17.06,74218.3,1.71,-5.39,-5.15,0,*75
1497154038.35,33167,17.06,74216.5,1.71,-5.27,-5.03,0,*7C
1497154039.59,33168,17.06,74220.5,1.73,-5.23,-4.99,0,*77
1497154040.86,33169,17.06,74216.8,1.73,-5.27,-5.03,0,*70
1497154042.1,33170,17.06,74216.8,1.73,-5.27,-4.99,0,*7A
1497154043.37,33171,17.06,74220.5,1.71,-5.27,-5.03,0,*7B
1497154044.64,33172,17.06,74220.3,1.71,-5.27,-5.03,0,*78
1497154045.91,33173,17.06,74220.0,1.71,-5.31,-5.03,0,*7E
1497154047.18,33174,17.06,74220.5,1.71,-5.27,-5.03,0,*7E
1497154048.46,33175,17.06,74222.3,1.71,-5.31,-5.07,0,*7C
1497154049.7,33176,17.06,74218.3,1.71,-5.39,-5.07,0,*77
1497154050.94,33177,17.06,74218.3,1.71,-5.43,-5.07,0,*7B
1497154052.19,33178,17.06,74222.5,1.71,-5.43,-5.07,0,*74
1497154053.43,33179,17.06,74216.3,1.71,-5.51,-5.15,0,*75
1497154054.68,33180,17.06,74220.3,1.71,-5.39,-5.15,0,*7D
1497154055.91,33181,17.06,74220.3,1.71,-5.43,-5.19,0,*7D
1497154057.16,33182,17.06,74222.5,1.71,-5.39,-5.15,0,*7F
1497154058.4,33183,17.06,74218.8,1.71,-5.39,-5.07,0,*7D
1497154059.64,33184,17.06,74218.5,1.73,-5.35,-5.11,0,*73
1497154060.88,33185,17.06,74220.3,1.71,-5.43,-5.15,0,*75
1497154062.13,33186,17.06,74218.0,1.71,-5.39,-5.15,0,*7B
1497154063.37,33187,17.06,74220.0,1.69,-5.31,-5.07,0,*78
1497154064.59,33188,17.06,74222.5,1.69,-5.43,-5.07,0,*72
1497154065.81,33189,17.06,74222.0,1.69,-5.51,-5.15,0,*73
1497154067.03,33190,17.06,74218.5,1.69,-5.51,-5.15,0,*7B
1497154068.24,33191,17.06,74218.8,1.69,-5.43,-5.07,0,*7A
1497154069.46,33192,17.06,74222.5,1.69,-5.43,-5.07,0,*79
1497154070.68,33193,17.06,74218.0,1.69,-5.39,-5.03,0,*71
1497154071.89,33194,17.06,74216.0,1.69,-5.39,-5.03,0,*76
1497154073.14,33195,17.06,74220.8,1.69,-5.31,-5.03,0,*7F
1497154074.39,33196,17.06,74220.3,1.69,-5.27,-5.03,0,*7B
1497154075.63,33197,17.06,74220.0,1.69,-5.31,-5.03,0,*7D
1497154076.88,33198,17.06,74218.5,1.69,-5.31,-5.03,0,*72
1497154078.12,33199,17.06,74216.8,1.67,-5.43,-5.07,0,*7C
1497154079.36,33200,17.13,74222.0,1.69,-5.31,-5.07,0,*74
1497154080.61,33201,17.06,74220.0,1.69,-5.31,-5.03,0,*71
1497154081.86,33202,17.06,74218.5,1.69,-5.31,-4.89,0,*71
1497154083.12,33203,17.13,74224.0,1.67,-5.31,-4.89,0,*7E
1497154084.36,33204,17.06,74222.8,1.69,-5.27,-4.89,0,*70
1497154085.61,33205,17.06,74216.0,1.69,-5.19,-4.89,0,*7C
1497154086.85,33206,17.06,74220.3,1.69,-5.19,-4.81,0,*77
1497154088.09,33207,17.06,74222.8,1.69,-5.19,-4.81,0,*76
1497154089.36,33208,17.06,74220.0,1.71,-5.27,-5.03,0,*76
1497154090.63,33209,17.06,74220.5,1.71,-5.31,-5.03,0,*70
1497154091.9,33210,17.06,74220.8,1.71,-5.31,-5.03,0,*78
1497154093.17,33211,17.06,74220.3,1.71,-5.31,-4.93,0,*71
1497154094.42,33212,17.06,74218.3,1.69,-5.31,-5.07,0,*77
1497154095.66,33213,17.06,74222.0,1.69,-5.31,-4.93,0,*7A
1497154096.9,33214,17.06,74220.3,1.69,-5.31,-5.03,0,*75
1497154098.15,33215,17.13,74224.3,1.69,-5.27,-5.03,0,*73
1497154099.39,33216,17.06,74220.8,1.69,-5.27,-4.89,0,*73
1497154100.6,33217,17.06,74220.0,1.67,-5.35,-4.99,0,*7E
1497154101.84,33218,17.06,74220.0,1.69,-5.31,-5.03,0,*79
1497154103.09,33219,17.06,74220.8,1.69,-5.27,-4.89,0,*7C
1497154104.33,33220,17.13,74220.8,1.69,-5.27,-4.89,0,*76
1497154105.57,33221,17.06,74220.5,1.69,-5.31,-4.93,0,*7B
1497154106.78,33222,17.06,74218.0,1.67,-5.35,-4.99,0,*78
1497154108.02,33223,17.06,74222.8,1.69,-5.31,-5.03,0,*71
1497154109.26,33224,17.13,74220.8,1.69,-5.31,-4.93,0,*7E
1497154110.5,33225,17.13,74224.0,1.69,-5.31,-4.93,0,*7F
1497154111.74,33226,17.06,74220.3,1.69,-5.27,-4.93,0,*7B
1497154112.98,33227,17.06,74222.3,1.69,-5.31,-4.93,0,*7D
1497154114.19,33228,17.13,74220.8,1.67,-5.35,-4.99,0,*72
1497154115.43,33229,17.06,74218.5,1.69,-5.27,-4.89,0,*7F
1497154116.67,33230,17.06,74220.3,1.69,-5.31,-4.89,0,*70
1497154117.91,33231,17.06,74220.8,1.69,-5.31,-4.93,0,*7A
1497154119.15,33232,17.13,74224.3,1.69,-5.31,-4.93,0,*79
1497154120.37,33233,17.06,74222.3,1.69,-5.39,-5.07,0,*7C
1497154121.61,33234,17.06,74222.5,1.69,-5.27,-5.03,0,*70
1497154122.88,33235,17.13,74220.3,1.71,-5.19,-4.89,0,*76